User: anonymous   Login
Location: Unspecified
(0.0000°N, 0.0000°E)
Time: 15:57:37
(UTC+01:00)
Language:

Hamsat - Orbit

View from above orbital plane
View from above orbital plane
View from above satellite
View from above satellite

Ground track
Ground track

The orbit data is extracted from the following two-line orbital elements,

1 28650U 05017B   17016.51008058  .00000208  00000-0  28016-4 0  9997
2 28650  97.6329 356.1712 0022089 273.2215  86.6475 14.88538066633600
Epoch (UTC): 16 January 2017 12:14:30
Eccentricity: 0.0022089
inclination: 97.6329°
perigee height: 587 km
apogee height: 618 km
right ascension of ascending node: 356.1712°
argument of perigee: 273.2215°
revolutions per day: 14.88538066
mean anomaly at epoch: 86.6475°
orbit number at epoch: 63360

The dashed part of the orbit path shows where the satellite is in the earth's shadow,  

DLR